Regional Weather Roundup
Issued by NWS

Home | Current Version | Previous Version | Graphics & Text | Print | Product List | Glossary On
Versions: 1 2 3 4 5 6 7 8 9 10 11 12 13 14 15 16 17 18 19 20 21 22 23 24 25 26 27 28 29 30 31 32 33 34 35 36 37 38 39 40 41 42 43 44 45 46 47 48 49 50
000
ASUS43 KDTX 191101
RWRMI
MICHIGAN HOURLY REGIONAL WEATHER ROUNDUP
NATIONAL WEATHER SERVICE DETROIT/PONTIAC MI
600 AM EST MON FEB 19 2018

NOTE: "FAIR" INDICATES FEW OR NO CLOUDS BELOW 12,000 FEET WITH NO
SIGNIFICANT WEATHER AND/OR OBSTRUCTION TO VISIBILITY.

MIZ047>049-052>055-059>063-066>070-074>076-081>083-191200-
SOUTHEAST LOWER MICHIGAN

CITY           SKY/WX    TMP DP  RH WIND       PRES   REMARKS
ADRIAN         MIX PCPN  33  31  92 S3        29.99S
ALMA           CLOUDY    34  31  91 SE6       29.93F WCI  29
ANN ARBOR      LGT RAIN  33  30  88 VRB3      29.98F
BAD AXE        CLOUDY    32  28  83 S13       29.98F WCI  23
CARO           CLOUDY    34  29  80 SE7       29.96F WCI  28
DETROIT CITY   CLOUDY    34  29  82 S5        30.03F WCI  30
DETROIT        LGT RAIN  34  29  82 SE5       30.03S WCI  30
FLINT          LGT RAIN  37  30  75 S9        29.97F WCI  30
GROSSE ILE     LGT RAIN  35  30  84 SE9       30.01F WCI  27
HILLSDALE      CLOUDY    34  32  93 S8        29.94S WCI  27
HOWELL         CLOUDY    36  32  87 SE8G16    29.96S WCI  29

CITY           SKY/WX    TMP DP  RH WIND       PRES   REMARKS
JACKSON        CLOUDY    37  32  82 SE7       29.94F WCI  32
LAMBERTVILLE   MIX PCPN  35  32  90 SE5       29.98F WCI  31
LANSING        CLOUDY    37  32  82 SE9       29.94S WCI  30
LAPEER         CLOUDY    35  29  79 S6        29.99F WCI  30
MASON          CLOUDY    37  30  77 S9        29.94F WCI  30
MONROE         LGT SNOW  33  31  92 CALM      30.01S
MT. CLEMENS    CLOUDY    33  33  99 SE5       30.02F WCI  29
PONTIAC        LGT RAIN  34  29  82 S8        29.99F WCI  27
PORT HOPE        N/A     33  27  78 S7        29.97F WCI  27
PORT HURON     CLOUDY    34  27  75 S8        30.04S WCI  27
TRI CITIES     CLOUDY    36  29  75 S10       29.95F WCI  28
MIDLAND        CLOUDY    35  30  81 S3        29.94S
TROY           LGT RAIN  35  30  83 CALM      30.03S
SAGINAW HB     CLOUDY    34  30  86 S7        29.96S WCI  28
$$
MIZ043>046-050>051-056>058-064>065-071>073-077>080-191200-
SOUTHWEST LOWER MICHIGAN

CITY           SKY/WX    TMP DP  RH WIND       PRES   REMARKS
BATTLE CREEK   CLOUDY    37  33  85 S12       29.92F WCI  29
BENTON HARBOR  CLOUDY    40  36  86 S8        29.90S FOG     WCI  34
BIG RAPIDS     CLOUDY    32  28  85 CALM      29.88F
COLDWATER      CLOUDY    35  35  99 SE6       29.93F WCI  30
FREMONT        CLOUDY    37  27  68 SE5       29.88S WCI  33
HOLLAND        CLOUDY    40  34  79 S9        29.88F WCI  34
GRAND RAPIDS   CLOUDY    39  32  76 S9        29.90F WCI  33
IONIA          CLOUDY    36  32  87 S5        29.91F WCI  32
KALAMAZOO      CLOUDY    38  33  82 S10       29.92S WCI  31
LUDINGTON      CLOUDY    39  32  76 S7        29.86R WCI  34
MARSHALL       CLOUDY    38  34  87 S9        29.92F WCI  31
MOUNT PLEASANT CLOUDY    34  29  83 CALM      29.92F
MUSKEGON       CLOUDY    42  32  67 S14G20    29.88S
SOUTH HAVEN    CLOUDY    40  36  84 S8        29.90S WCI  34
$$
MIZ016>042-191200-
NORTHERN LOWER MICHIGAN

CITY           SKY/WX    TMP DP  RH WIND       PRES   REMARKS
ALPENA         FAIR      29  27  92 S7        29.93F WCI  22
BEAVER ISLAND  CLOUDY    34  28  79 S3        29.87S
BELLAIRE       CLOUDY    32  29  90 CALM      29.88F
CADILLAC       CLOUDY    33  30  87 S6        29.86S WCI  28
CHARLEVOIX     CLOUDY    33  28  80 SE3       29.89F
FRANKFORT      CLOUDY    39  30  71 SE5       29.85S
GAYLORD        FAIR      29  27  92 S8        29.86F WCI  21
GRAYLING       MOCLDY    31  28  90 SE3       29.87F
HARBOR SPRINGS CLOUDY    33  27  79 CALM      29.87F
HOUGHTON LAKE  CLOUDY    32  28  85 SE7       29.89F WCI  26
MANISTEE       CLOUDY    37  30  75 E5        29.85  WCI  33
OSCODA         CLOUDY    32  26  79 S8        29.95F WCI  25
PELLSTON       MOCLDY    28  24  85 CALM      29.88F
ROGERS CITY    FAIR      31  27  84 S7        29.92F WCI  24
TRAVERSE CITY  CLOUDY    38  29  70 S3        29.85F
$$
MIZ007>008-015-191200-
EASTERN UPPER MICHIGAN

CITY           SKY/WX    TMP DP  RH WIND       PRES   REMARKS
KINROSS        CLOUDY    31  25  78 S8        29.89R WCI  23
MACKINAC ISLAN CLOUDY    32  25  74 SE6       29.88S WCI  26
NEWBERRY       CLOUDY    31  26  80 S7        29.87R WCI  24
S. S. MARIE    CLOUDY    33  24  69 SE5       29.88S WCI  29
MUNISING         N/A     34  32  92 NW6       29.88R WCI  29
$$
MIZ004>006-011>014-085-191200-
CENTRAL UPPER MICHIGAN

CITY           SKY/WX    TMP DP  RH WIND       PRES   REMARKS
MANISTIQUE     CLOUDY    32  31  96 CALM      29.86R
ESCANABA       FAIR      24  23  96 CALM      29.85F FOG
MENOMINEE      CLOUDY    30  28  92 NE3       29.84R FOG
SAWYER-GWINN   CLOUDY    29  25  84 N10       29.86R WCI  20
$$
MIZ001>003-009>011-084-191200-
WESTERN UPPER MICHIGAN

CITY           SKY/WX    TMP DP  RH WIND       PRES   REMARKS
IRON MOUNTAIN  MOCLDY    25  22  88 CALM      29.82R
HOUGHTON       CLOUDY    20  14  77 N17       29.94R WCI   5
COPPER HARBOR    N/A     20  15  81 NE17      29.97R WCI   5
IRONWOOD       LGT SNOW  17  15  92 NE9       29.92F FOG     WCI   6
$$

ABBREVIATIONS USED IN REMARKS
   TC - TEMPERATURE IN CELSIUS
  WCI - WIND CHILL INDEX
   HX - HEAT INDEX
  VSB - VISIBILITY





USA.gov is the U.S. government's official web portal to all federal, state and local government web resources and services.